sat.trackr.live / text

‹ back to catalog

STARLINK-32837

NORAD 62812 · 2025-018G

PAYLOAD ACTIVE UNKNOWN

§ Identity

Operator
Country
US
Launch date
2025-01-24
Launch site
AFWTR
Launch vehicle
Mass (kg)
RCS (m²)

Purposes: comms

External: N2YO · Heavens-Above · Gunter

§ Orbital elements

Epoch: 2026-09-21T20:54:35.266464Z

Period
93.85 min
Inclination
53.1575°
Eccentricity
0.0001180
Mean motion
15.34404703 rev/d
Perigee alt
461.9 km
Apogee alt
463.5 km
Semi-major
6,840.8 km
B*
4.3003e-4
RAAN
115.6015°
Arg perigee
77.1349°
Mean anomaly
282.9786°
Rev number
9,325

§ Raw data

STARLINK-328371 62812U 25018G   26264.87124151  .00014183  00000+0  43003-3 0  99932 62812  53.1575 115.6015 0001180  77.1349 282.9786 15.34404703 93259

JSON: /api/v1/satellites/62812 · /tle

For live sub-satellite position, see the globe view (requires WebGL).

§ Visibility from observer

Set your observer location to see the next 7 days of passes ≥ 10°. The values pass through the URL so the page stays shareable.

No JS? Fill the form by hand. The geolocation button needs JavaScript.